sat.trackr.live / text

‹ back to catalog

STARLINK-34413

NORAD 64616 · 2025-137Y

PAYLOAD ACTIVE UNKNOWN

§ Identity

Operator
Country
US
Launch date
2025-06-25
Launch site
AFETR
Launch vehicle
Mass (kg)
RCS (m²)

Purposes: comms

External: N2YO · Heavens-Above · Gunter

§ Orbital elements

Epoch: 2026-05-24T19:12:57.253824Z

Period
94.10 min
Inclination
53.1621°
Eccentricity
0.0000927
Mean motion
15.30209252 rev/d
Perigee alt
474.6 km
Apogee alt
475.8 km
Semi-major
6,853.3 km
B*
4.3575e-4
RAAN
342.0016°
Arg perigee
95.5846°
Mean anomaly
264.5260°
Rev number
5,248

§ Raw data

STARLINK-344131 64616U 25137Y   26144.80066266  .00012572  00000+0  43575-3 0  99952 64616  53.1621 342.0016 0000927  95.5846 264.5260 15.30209252 52487

JSON: /api/v1/satellites/64616 · /tle

For live sub-satellite position, see the globe view (requires WebGL).

§ Visibility from observer

Set your observer location to see the next 7 days of passes ≥ 10°. The values pass through the URL so the page stays shareable.

No JS? Fill the form by hand. The geolocation button needs JavaScript.